CW3827 Weather Reports


Display with metric or nautical units.
time (UTC)temp
F
wind
direction
speed
MPH
gust
MPH
rain 1hr
in
rain 24hr
in
rain mn
in
humidity
%
barometer
mb
20260831114531 66 81 7.0 9.0 0.00 0.00 0.00 53 1023.4
20260831113017 65 74 9.0 11.0 0.00 0.00 0.00 55 1023.1
20260831111513 64 79 7.0 9.0 0.00 0.00 0.00 57 1023.2
20260831110008 65 70 6.0 7.0 0.00 0.00 0.00 56 1023.2
20260831104514 65 122 7.0 9.0 0.00 0.00 0.00 56 1023.1
20260831103003 66 43 9.0 11.0 0.00 0.00 0.00 52 1023.1
20260831101536 68 54 11.0 13.0 0.00 0.00 0.00 49 1022.9
20260831100019 66 54 10.0 11.0 0.00 0.00 0.00 52 1023.1
20260831094516 68 59 8.0 12.0 0.00 0.00 0.00 50 1023.1
20260831093015 70 54 11.0 14.0 0.00 0.00 0.00 45 1023.3
20260831091519 71 75 7.0 15.0 0.00 0.00 0.00 44 1023.4
20260831090007 70 54 13.0 16.0 0.00 0.00 0.00 45 1023.4
20260831084526 72 21 10.0 16.0 0.00 0.00 0.00 44 1023.1
20260831083027 72 288 8.0 13.0 0.00 0.00 0.00 44 1023.1
20260831081519 71 68 10.0 16.0 0.00 0.00 0.00 46 1023.1
20260831080018 70 49 13.0 15.0 0.00 0.00 0.00 46 1023.1
20260831074510 70 68 13.0 16.0 0.00 0.00 0.00 47 1023.2
20260831073035 69 105 10.0 12.0 0.00 0.00 0.00 49 1023.4
20260831071539 69 93 7.0 11.0 0.00 0.00 0.00 49 1023.4
20260831070029 70 50 13.0 16.0 0.00 0.00 0.00 47 1023.1
20260831064528 70 64 12.0 15.0 0.00 0.00 0.00 48 1023.2
20260831063020 71 47 14.0 18.0 0.00 0.00 0.00 46 1023.4
20260831061517 71 77 12.0 17.0 0.00 0.00 0.00 47 1023.6
20260831060036 70 85 13.0 15.0 0.00 0.00 0.00 49 1023.6
20260831054532 68 208 6.0 9.0 0.00 0.00 0.00 55 1023.8
20260831053031 70 201 7.0 11.0 0.00 0.00 0.00 50 1024.0
20260831051535 69 232 9.0 11.0 0.00 0.00 0.00 53 1024.0
20260831050003 72 214 5.0 7.0 0.00 0.00 0.00 50 1024.0
20260831044521 74 342 4.0 13.0 0.00 0.00 0.00 45 1024.0
20260831043013 71 271 6.0 9.0 0.00 0.00 0.00 50 1024.1
20260831041510 70 245 7.0 9.0 0.00 0.00 0.00 54 1023.9
20260831040020 71 226 6.0 8.0 0.00 0.00 0.00 53 1023.8
20260831034504 73 214 4.0 6.0 0.00 0.00 0.00 50 1023.6
20260831033004 73 203 3.0 7.0 0.00 0.00 0.00 50 1023.4
20260831031531 76 269 4.0 6.0 0.00 0.00 0.00 43 1023.1
20260831030019 76 204 5.0 10.0 0.00 0.00 0.00 41 1022.8
20260831024514 77 218 4.0 9.0 0.00 0.00 0.00 40 1022.6
20260831023014 79 292 2.0 9.0 0.00 0.00 0.00 37 1022.3
20260831021506 80 23 9.0 14.0 0.00 0.00 0.00 34 1022.2
20260831020027 79 360 8.0 12.0 0.00 0.00 0.00 36 1022.2
20260831014534 79 288 5.0 13.0 0.00 0.00 0.00 36 1022.2
20260831013025 78 325 6.0 14.0 0.00 0.00 0.00 38 1022.3
20260831011535 79 289 0.0 1.0 0.00 0.00 0.00 39 1022.1
20260831010015 80 152 0.0 1.0 0.00 0.00 0.00 39 1022.0
20260831004508 81 95 0.0 3.0 0.00 0.00 0.00 34 1022.0
20260831003038 80 5 6.0 12.0 0.00 0.00 0.00 38 1022.1
20260831001533 81 219 5.0 6.0 0.00 0.00 0.00 40 1022.0
20260831000024 82 108 9.0 13.0 0.00 0.00 0.00 37 1021.7
20260830234542 84 108 12.0 20.0 0.00 0.00 0.00 35 1021.5
20260830233019 86 113 17.0 21.0 0.00 0.00 0.00 32 1021.4
20260830231514 90 100 11.0 20.0 0.00 0.00 0.00 29 1021.4
20260830230042 90 145 4.0 10.0 0.00 0.00 0.00 26 1021.5
20260830224530 91 103 3.0 8.0 0.00 0.00 0.00 26 1021.5
20260830223028 90 181 6.0 11.0 0.00 0.00 0.00 25 1021.7
20260830221532 89 146 2.0 11.0 0.00 0.00 0.00 26 1021.9
20260830220025 88 148 8.0 16.0 0.00 0.00 0.00 28 1022.1
20260830214516 86 116 11.0 17.0 0.00 0.00 0.00 30 1022.2
20260830213032 87 138 9.0 18.0 0.00 0.00 0.00 29 1022.5
20260830211531 90 269 7.0 14.0 0.00 0.00 0.00 26 1022.7
20260830210032 91 350 2.0 8.0 0.00 0.00 0.00 27 1022.9
20260830204534 89 250 5.0 12.0 0.00 0.00 0.00 28 1023.1
20260830203035 91 217 8.0 14.0 0.00 0.00 0.00 27 1023.3
20260830201534 90 349 5.0 12.0 0.00 0.00 0.00 25 1023.6
20260830200002 88 32 1.0 5.0 0.00 0.00 0.00 29 1023.7
20260830194512 88 326 4.0 11.0 0.00 0.00 0.00 29 1024.2
20260830193011 88 350 0.0 8.0 0.00 0.00 0.00 28 1024.4
20260830191512 87 349 5.0 9.0 0.00 0.00 0.00 31 1024.7
20260830190004 87 330 6.0 10.0 0.00 0.00 0.00 30 1024.6
20260830184502 86 346 0.0 15.0 0.00 0.00 0.00 31 1024.8
20260830183018 86 349 3.0 11.0 0.00 0.00 0.00 32 1025.0
20260830181515 85 25 6.0 14.0 0.00 0.00 0.00 33 1025.3
20260830180021 85 326 8.0 12.0 0.00 0.00 0.00 33 1025.6
20260830174509 84 103 1.0 12.0 0.00 0.00 0.00 33 1025.6
20260830173004 83 160 6.0 9.0 0.00 0.00 0.00 35 1025.7
20260830171504 82 105 3.0 9.0 0.00 0.00 0.00 36 1025.8
20260830170025 82 110 4.0 8.0 0.00 0.00 0.00 37 1026.0
20260830164519 81 145 3.0 9.0 0.00 0.00 0.00 38 1026.1
20260830163036 80 166 3.0 10.0 0.00 0.00 0.00 39 1026.0
20260830161510 79 221 7.0 10.0 0.00 0.00 0.00 40 1026.1
20260830160008 78 226 3.0 9.0 0.00 0.00 0.00 42 1026.3
20260830154506 78 219 6.0 10.0 0.00 0.00 0.00 42 1026.4
20260830153027 77 281 6.0 9.0 0.00 0.00 0.00 43 1026.5
20260830151523 77 219 3.0 5.0 0.00 0.00 0.00 43 1026.4
20260830150026 77 228 2.0 7.0 0.00 0.00 0.00 45 1026.2
20260830144528 78 211 1.0 4.0 0.00 0.00 0.00 42 1026.0
20260830143011 77 114 1.0 5.0 0.00 0.00 0.00 46 1025.9
20260830141526 76 116 3.0 4.0 0.00 0.00 0.00 49 1025.7
20260830140033 73 110 3.0 3.0 0.00 0.00 0.00 56 1025.6
20260830134526 69 132 3.0 6.0 0.00 0.00 0.00 61 1025.6
20260830133022 66 135 5.0 6.0 0.00 0.00 0.00 66 1025.6
20260830131521 64 112 6.0 7.0 0.00 0.00 0.00 67 1025.5
20260830130020 62 127 6.0 7.0 0.00 0.00 0.00 70 1025.4
20260830124510 61 115 6.0 7.0 0.00 0.00 0.00 71 1025.2
20260830123031 61 138 6.0 7.0 0.00 0.00 0.00 72 1025.3
20260830121528 62 145 5.0 6.0 0.00 0.00 0.00 69 1025.4
20260830120028 62 109 5.0 6.0 0.00 0.00 0.00 68 1025.1